Weather History for Point Salines, Grenada

Change the Weather History Date:

Sunday, October 7, 2012

  Actual Average Record
Temperature  
Mean Temperature 84 °F -  
Max Temperature 88 °F 85 °F 89 °F (2005)
Min Temperature 81 °F 76 °F 77 °F (1998)
Cooling Degree Days 20    
Growing Degree Days 34 (Base 50)    
Moisture  
Dew Point 79 °F    
Average Humidity 79    
Maximum Humidity 84    
Minimum Humidity 69    
Precipitation  
Precipitation 0.00 in - - ()
Sea Level Pressure  
Sea Level Pressure 29.89 in    
Wind  
Wind Speed 12 mph ()    
Max Wind Speed 17 mph    
Max Gust Speed -    
Visibility 7.7 miles    
Events      
Averages and records for this station are not official NWS values.
T = Trace of Precipitation, MM = Missing Value Source: Averaged Metar Reports

Daily Weather History Graph

Daily Weather History Graph

Search for Another Location

Airport:

Trip Planner

Search our weather history database for the weather conditions in past years. The results will help you decide how hot, cold, wet, or windy it might be!

Date:

Astronomy

Oct. 07, 2012 Rise Set
Actual Time 5:56 AM AST 5:53 PM AST
Civil Twilight 5:35 AM AST 6:14 PM AST
Nautical Twilight 5:10 AM AST 6:38 PM AST
Astronomical Twilight 4:45 AM AST 7:03 PM AST
Moon 11:38 PM AST (10/7) 11:49 AM AST (10/7)
Length of Visible Light 12h 39m
Length of Day
11h 56m
Waning Gibbous, 56% of the Moon is Illuminated
Oct 7
Waning Gibbous
Oct 8
Last Quarter
Oct 15
New
Oct 21
First Quarter
Oct 29
Full

Hourly Weather History & Observations

Time (AST) Temp. Heat Index Dew Point Humidity Pressure Visibility Wind Dir Wind Speed Gust Speed Precip Events Conditions
12:00 AM 84.2 °F 96.1 °F 78.8 °F 84% 29.86 in 6.2 mi SE 9.2 mph - N/A   Scattered Clouds
1:00 AM 84.2 °F 94.1 °F 77.0 °F 79% 29.86 in 6.2 mi SE 13.8 mph - N/A   Partly Cloudy
2:00 AM 84 °F - 78 °F 76% 29.85 in 11 mi SE 13.8 mph - -   Widespread Dust
2:00 AM 84.2 °F 94.1 °F 77.0 °F 79% 29.83 in 6.2 mi SE 13.8 mph - N/A   Scattered Clouds
3:00 AM 84.2 °F 96.1 °F 78.8 °F 84% 29.83 in 6.2 mi SE 13.8 mph - N/A   Scattered Clouds
4:00 AM 84.2 °F 96.1 °F 78.8 °F 84% 29.83 in 6.2 mi SE 11.5 mph - N/A   Mostly Cloudy
5:00 AM 83 °F - 79 °F 84% 29.83 in 9 mi SSE 13.8 mph - -   Widespread Dust
5:00 AM 84.2 °F 96.1 °F 78.8 °F 84% 29.83 in 6.2 mi SSE 13.8 mph - N/A   Scattered Clouds
6:00 AM 84.2 °F 96.1 °F 78.8 °F 84% 29.86 in 6.2 mi SE 12.7 mph - N/A   Scattered Clouds
7:00 AM 84.2 °F 96.1 °F 78.8 °F 84% 29.86 in 6.2 mi SE 13.8 mph - N/A   Scattered Clouds
8:00 AM 86 °F - 79 °F 75% 29.91 in 11 mi SE 16.1 mph - -   Widespread Dust
8:00 AM 86.0 °F 99.3 °F 78.8 °F 79% 29.89 in 6.2 mi SE 16.1 mph - N/A   Scattered Clouds
9:00 AM 87.8 °F 102.5 °F 78.8 °F 75% 29.92 in 6.2 mi SE 16.1 mph - N/A   Scattered Clouds
10:00 AM 87.8 °F 102.5 °F 78.8 °F 75% 29.95 in 6.2 mi SE 15.0 mph - N/A   Scattered Clouds
11:00 AM 88 °F - 79 °F 69% 29.94 in 14 mi SE 13.8 mph - -   Widespread Dust
11:00 AM 87.8 °F 102.5 °F 78.8 °F 75% 29.92 in 6.2 mi SE 13.8 mph - N/A   Scattered Clouds
12:00 PM 87.8 °F 102.5 °F 78.8 °F 75% 29.92 in 6.2 mi SE 12.7 mph - N/A   Mostly Cloudy
1:00 PM 87.8 °F 102.5 °F 78.8 °F 75% 29.89 in 6.2 mi SE 16.1 mph - N/A   Scattered Clouds
2:00 PM 88 °F - 79 °F 69% 29.88 in 16 mi SE 17.3 mph - -   Scattered Clouds
2:00 PM 87.8 °F 102.5 °F 78.8 °F 75% 29.86 in 6.2 mi SE 17.3 mph - N/A   Scattered Clouds
3:00 PM 87.8 °F 99.7 °F 77.0 °F 70% 29.86 in 6.2 mi East 11.5 mph - N/A   Scattered Clouds
4:00 PM 87.8 °F 104.9 °F 80.6 °F 79% 29.86 in 6.2 mi SE 13.8 mph - N/A   Partly Cloudy
5:00 PM 84 °F - 78 °F 78% 29.88 in 16 mi SE 11.5 mph - -   Partly Cloudy
5:00 PM 84.2 °F 96.1 °F 78.8 °F 84% 29.89 in 6.2 mi SE 11.5 mph - N/A   Scattered Clouds
6:00 PM 84.2 °F 96.1 °F 78.8 °F 84% 29.89 in 6.2 mi ESE 12.7 mph - N/A   Scattered Clouds
7:00 PM 84.2 °F 96.1 °F 78.8 °F 84% 29.89 in 6.2 mi SE 15.0 mph - N/A   Scattered Clouds
8:00 PM 84 °F - 78 °F 78% 29.93 in - ESE 13.8 mph - -   Widespread Dust
8:00 PM 84.2 °F 96.1 °F 78.8 °F 84% 29.92 in 6.2 mi ESE 13.8 mph - N/A   Partly Cloudy
9:00 PM 84.2 °F 96.1 °F 78.8 °F 84% 29.95 in 6.2 mi SE 13.8 mph - N/A   Scattered Clouds
10:00 PM 84.2 °F 96.1 °F 78.8 °F 84% 29.95 in 6.2 mi ESE 10.4 mph - N/A   Scattered Clouds
11:00 PM 84 °F - 78 °F 78% 29.96 in 14 mi ESE 11.5 mph - -   Widespread Dust
11:00 PM 84.2 °F 96.1 °F 78.8 °F 84% 29.95 in 6.2 mi ESE 11.5 mph - N/A   Scattered Clouds